Dades meteomassalio
Diari Summary for Setembre 25, 2017 Units:  English    Metric   Both
« Previous Day
Next Day »
Diari Semanal Mensual Anual Personalitzat
  Maxima: Minima: Mijana:
Temperatura: TemperatureC °F 10.0 °F 18.7 °F
Rosada: DewpointC °F 3.6 °F 10.2 °F
Humitat: Humidity % 37 % 60 %
Velocitat del vent: WindSpeedKMH mph 0.0 mph 14.8 mph
Racha vent: WindSpeedGustKMH mph - -
Vent:- - SW
Pressio: PressurehPa in 1018.2 in -
Pluja: 0.0 in    
Historical Graphs
 
 
Tabular Data for Setembre 25, 2017
Time Temperature Dew Point Pressure Wind Wind Speed Wind Gust Humidity Rainfall Rate (Hourly) solar Conditions
TemperatureC °F DewpointC °F PressurehPa in Calm     Humidity % HourlyPrecipMM in SolarRadiationWatts/m^2 W/m2 Conditions
00:04 15.0 °F 8.9 °F 1019.9 in Calm     67 % 0.0 in 0.0 W/m2 CLR
00:09 15.0 °F 8.9 °F 1019.9 in Calm     67 % 0.0 in 0.0 W/m2 CLR
00:14 15.0 °F 8.7 °F 1019.9 in Calm     66 % 0.0 in 0.0 W/m2 CLR
00:19 15.0 °F 8.9 °F 1019.9 in Calm     67 % 0.0 in 0.0 W/m2 CLR
00:24 14.4 °F 8.6 °F 1019.9 in Calm     68 % 0.0 in 0.0 W/m2 CLR
00:29 14.4 °F 8.8 °F 1019.9 in Calm     69 % 0.0 in 0.0 W/m2 CLR
00:34 14.4 °F 8.8 °F 1019.9 in Calm     69 % 0.0 in 0.0 W/m2 CLR
00:39 14.4 °F 9.1 °F 1019.9 in Calm     70 % 0.0 in 0.0 W/m2 CLR
00:44 13.9 °F 8.3 °F 1019.9 in Calm     69 % 0.0 in 0.0 W/m2 CLR
00:49 13.9 °F 8.3 °F 1019.5 in Calm     69 % 0.0 in 0.0 W/m2 CLR
00:54 13.9 °F 8.3 °F 1019.5 in Calm     69 % 0.0 in 0.0 W/m2 CLR
00:59 13.9 °F 8.3 °F 1019.5 in Calm     69 % 0.0 in 0.0 W/m2 CLR
01:04 13.9 °F 8.5 °F 1019.9 in Calm     70 % 0.0 in 0.0 W/m2 CLR
01:09 13.3 °F 8.0 °F 1019.5 in Calm     70 % 0.0 in 0.0 W/m2 CLR
01:14 13.3 °F 8.0 °F 1019.5 in Calm     70 % 0.0 in 0.0 W/m2 CLR
01:19 13.3 °F 8.2 °F 1019.5 in Calm     71 % 0.0 in 0.0 W/m2 CLR
01:24 13.3 °F 8.2 °F 1019.5 in Calm     71 % 0.0 in 0.0 W/m2 CLR
01:29 13.3 °F 8.4 °F 1019.5 in Calm     72 % 0.0 in 0.0 W/m2 CLR
01:34 13.3 °F 8.4 °F 1019.5 in Calm     72 % 0.0 in 0.0 W/m2 CLR
01:39 13.3 °F 8.4 °F 1019.5 in Calm     72 % 0.0 in 0.0 W/m2 CLR
01:44 12.8 °F 7.8 °F 1019.5 in Calm     72 % 0.0 in 0.0 W/m2 CLR
01:49 12.8 °F 8.1 °F 1019.5 in Calm     73 % 0.0 in 0.0 W/m2 CLR
01:54 12.8 °F 7.8 °F 1019.5 in Calm     72 % 0.0 in 0.0 W/m2 CLR
01:59 12.8 °F 8.1 °F 1019.5 in Calm     73 % 0.0 in 0.0 W/m2 CLR
02:04 12.8 °F 8.1 °F 1019.2 in Calm     73 % 0.0 in 0.0 W/m2 CLR
02:09 12.8 °F 8.1 °F 1019.2 in Calm     73 % 0.0 in 0.0 W/m2 CLR
02:14 12.8 °F 8.1 °F 1019.5 in Calm     73 % 0.0 in 0.0 W/m2 CLR
02:19 12.8 °F 8.1 °F 1019.5 in Calm     73 % 0.0 in 0.0 W/m2 CLR
02:24 12.2 °F 7.7 °F 1019.2 in Calm     74 % 0.0 in 0.0 W/m2 CLR
02:29 12.2 °F 7.7 °F 1019.2 in Calm     74 % 0.0 in 0.0 W/m2 CLR
02:34 12.2 °F 7.7 °F 1019.2 in Calm     74 % 0.0 in 0.0 W/m2 CLR
02:40 12.2 °F 7.7 °F 1019.2 in Calm     74 % 0.0 in 0.0 W/m2 CLR
02:45 12.2 °F 7.7 °F 1019.2 in Calm     74 % 0.0 in 0.0 W/m2 CLR
02:50 12.2 °F 7.9 °F 1019.2 in Calm     75 % 0.0 in 0.0 W/m2 CLR
02:55 12.2 °F 7.9 °F 1019.2 in Calm     75 % 0.0 in 0.0 W/m2 CLR
03:00 12.2 °F 7.9 °F 1019.2 in Calm     75 % 0.0 in 0.0 W/m2 CLR
03:05 12.2 °F 7.9 °F 1019.2 in Calm     75 % 0.0 in 0.0 W/m2 CLR
03:10 12.2 °F 7.9 °F 1019.2 in Calm     75 % 0.0 in 0.0 W/m2 CLR
03:15 12.2 °F 7.9 °F 1018.8 in Calm     75 % 0.0 in 0.0 W/m2 CLR
03:20 12.2 °F 7.9 °F 1018.8 in Calm     75 % 0.0 in 0.0 W/m2 CLR
03:25 12.2 °F 7.9 °F 1018.8 in Calm     75 % 0.0 in 0.0 W/m2 CLR
03:30 12.2 °F 8.1 °F 1018.8 in Calm     76 % 0.0 in 0.0 W/m2 CLR
03:35 11.7 °F 7.6 °F 1018.8 in Calm     76 % 0.0 in 0.0 W/m2 CLR
03:40 11.7 °F 7.6 °F 1018.8 in Calm     76 % 0.0 in 0.0 W/m2 CLR
03:45 11.7 °F 7.6 °F 1018.8 in Calm     76 % 0.0 in 0.0 W/m2 CLR
03:50 11.7 °F 7.6 °F 1018.8 in Calm     76 % 0.0 in 0.0 W/m2 CLR
03:55 11.1 °F 7.1 °F 1018.8 in Calm     76 % 0.0 in 0.0 W/m2 CLR
04:00 11.1 °F 7.1 °F 1018.8 in Calm     76 % 0.0 in 0.0 W/m2 CLR
04:05 11.1 °F 7.2 °F 1018.5 in Calm     77 % 0.0 in 0.0 W/m2 CLR
04:10 11.1 °F 7.2 °F 1018.5 in Calm     77 % 0.0 in 0.0 W/m2 CLR
04:16 11.1 °F 7.4 °F 1018.5 in Calm     78 % 0.0 in 0.0 W/m2 CLR
04:21 11.1 °F 7.4 °F 1018.5 in Calm     78 % 0.0 in 0.0 W/m2 CLR
04:26 10.6 °F 6.9 °F 1018.5 in Calm     78 % 0.0 in 0.0 W/m2 CLR
04:31 10.6 °F 6.7 °F 1018.5 in Calm     77 % 0.0 in 0.0 W/m2 CLR
04:32 10.6 °F 6.7 °F 1018.5 in Calm     77 % 0.0 in 0.0 W/m2 CLR
04:37 10.6 °F 6.7 °F 1018.5 in Calm     77 % 0.0 in 0.0 W/m2 CLR
04:42 10.6 °F 6.9 °F 1018.5 in Calm     78 % 0.0 in 0.0 W/m2 CLR
04:47 10.6 °F 6.9 °F 1018.5 in Calm     78 % 0.0 in 0.0 W/m2 CLR
04:52 10.6 °F 6.9 °F 1018.5 in Calm     78 % 0.0 in 0.0 W/m2 CLR
04:57 10.0 °F 6.2 °F 1018.5 in Calm     77 % 0.0 in 0.0 W/m2 CLR
05:02 10.0 °F 6.2 °F 1018.5 in Calm     77 % 0.0 in 0.0 W/m2 CLR
05:07 10.0 °F 6.3 °F 1018.2 in Calm     78 % 0.0 in 0.0 W/m2 CLR
05:18 10.0 °F 6.5 °F 1018.2 in Calm     79 % 0.0 in 0.0 W/m2 CLR
05:21 10.0 °F 6.5 °F 1018.2 in Calm     79 % 0.0 in 0.0 W/m2 CLR
05:22 10.0 °F 6.5 °F 1018.2 in Calm     79 % 0.0 in 0.0 W/m2 CLR
05:26 10.0 °F 6.5 °F 1018.2 in Calm     79 % 0.0 in 0.0 W/m2 CLR
05:27 10.0 °F 6.5 °F 1018.2 in Calm     79 % 0.0 in 0.0 W/m2 CLR
05:32 10.0 °F 6.5 °F 1018.2 in Calm     79 % 0.0 in 0.0 W/m2 CLR
05:37 10.0 °F 6.5 °F 1018.2 in Calm     79 % 0.0 in 0.0 W/m2 CLR
05:42 10.0 °F 6.7 °F 1018.2 in Calm     80 % 0.0 in 0.0 W/m2 CLR
05:47 10.0 °F 6.7 °F 1018.2 in Calm     80 % 0.0 in 0.0 W/m2 CLR
05:52 10.0 °F 6.5 °F 1018.2 in Calm     79 % 0.0 in 0.0 W/m2 CLR
05:57 10.0 °F 6.7 °F 1018.2 in Calm     80 % 0.0 in 0.0 W/m2 CLR
06:02 10.0 °F 6.7 °F 1018.2 in Calm     80 % 0.0 in 0.0 W/m2 CLR
06:12 10.0 °F 6.7 °F 1018.2 in Calm     80 % 0.0 in 0.0 W/m2 CLR
06:17 10.0 °F 6.7 °F 1018.2 in Calm     80 % 0.0 in 0.0 W/m2 CLR
06:22 10.0 °F 6.7 °F 1018.2 in Calm     80 % 0.0 in 0.0 W/m2 CLR
06:27 10.0 °F 6.7 °F 1018.2 in Calm     80 % 0.0 in 0.0 W/m2 CLR
06:32 10.0 °F 6.7 °F 1018.2 in Calm     80 % 0.0 in 0.0 W/m2 CLR
06:37 10.0 °F 6.9 °F 1018.5 in Calm     81 % 0.0 in 0.0 W/m2 CLR
06:42 10.0 °F 6.7 °F 1018.5 in Calm     80 % 0.0 in 0.0 W/m2 CLR
06:47 10.0 °F 6.9 °F 1018.5 in Calm     81 % 0.0 in 0.0 W/m2 CLR
06:52 10.0 °F 6.9 °F 1018.5 in Calm     81 % 0.0 in 0.0 W/m2 CLR
06:57 10.6 °F 7.4 °F 1018.5 in Calm     81 % 0.0 in 0.0 W/m2 CLR
07:02 10.6 °F 7.4 °F 1018.5 in Calm     81 % 0.0 in 0.0 W/m2 CLR
07:07 10.6 °F 7.2 °F 1018.5 in Calm     80 % 0.0 in 0.0 W/m2 CLR
07:12 10.6 °F 7.1 °F 1018.5 in Calm     79 % 0.0 in 0.0 W/m2 CLR
07:17 11.1 °F 7.6 °F 1018.5 in Calm     79 % 0.0 in 0.0 W/m2 CLR
07:22 11.1 °F 7.6 °F 1018.5 in Calm     79 % 0.0 in 0.0 W/m2 CLR
07:27 11.1 °F 7.8 °F 1018.5 in Calm     80 % 0.0 in 0.0 W/m2 CLR
07:32 11.1 °F 7.8 °F 1018.8 in Calm     80 % 0.0 in 0.0 W/m2 CLR
07:37 11.1 °F 7.8 °F 1018.8 in Calm     80 % 0.0 in 0.0 W/m2 CLR
07:42 11.1 °F 7.8 °F 1018.8 in Calm     80 % 0.0 in 0.0 W/m2 OVC
07:47 11.1 °F 7.8 °F 1019.2 in Calm     80 % 0.0 in 0.0 W/m2 OVC
07:52 11.1 °F 7.6 °F 1019.2 in Calm     79 % 0.0 in 0.0 W/m2 OVC
07:57 11.1 °F 7.4 °F 1019.2 in SSW 16.7 mph 16.7 mph 78 % 0.0 in 0.0 W/m2 OVC
08:02 11.1 °F 5.2 °F 1018.8 in SSW 18.5 mph 18.5 mph 67 % 0.0 in 5.0 W/m2 OVC
08:07 11.1 °F 3.6 °F 1019.2 in SSW 16.7 mph 16.7 mph 60 % 0.0 in 9.0 W/m2 BKN
08:12 11.7 °F 3.9 °F 1019.2 in SSW 18.5 mph 18.5 mph 59 % 0.0 in 11.0 W/m2 BKN
08:17 12.2 °F 4.7 °F 1019.2 in SSW 16.1 mph 16.1 mph 60 % 0.0 in 18.0 W/m2 BKN
08:23 13.3 °F 5.9 °F 1019.2 in WSW 9.7 mph 9.7 mph 61 % 0.0 in 26.0 W/m2 BKN
08:28 13.9 °F 7.2 °F 1019.5 in WSW 11.3 mph 11.3 mph 64 % 0.0 in 25.0 W/m2 BKN
08:33 13.9 °F 7.6 °F 1019.5 in SW 5.6 mph 5.6 mph 66 % 0.0 in 30.0 W/m2 BKN
08:38 13.9 °F 8.3 °F 1019.5 in SSW 9.3 mph 9.3 mph 69 % 0.0 in 35.0 W/m2 BKN
08:43 13.9 °F 8.5 °F 1019.5 in SSW 1.9 mph 1.9 mph 70 % 0.0 in 44.0 W/m2 BKN
08:48 14.4 °F 9.7 °F 1019.9 in SW 6.4 mph 6.4 mph 73 % 0.0 in 60.0 W/m2 SCT
08:53 14.4 °F 9.9 °F 1019.9 in SW 5.6 mph 5.6 mph 74 % 0.0 in 81.0 W/m2 SCT
08:58 15.0 °F 10.6 °F 1019.5 in Calm     75 % 0.0 in 144.0 W/m2 FEW
09:03 15.6 °F 11.2 °F 1019.9 in SSW 5.6 mph 5.6 mph 75 % 0.0 in 186.0 W/m2 CLR
09:08 17.2 °F 12.6 °F 1019.9 in SSW 9.7 mph 9.7 mph 74 % 0.0 in 167.0 W/m2 CLR
09:13 17.8 °F 13.1 °F 1019.9 in SSW 11.1 mph 11.1 mph 74 % 0.0 in 84.0 W/m2 CLR
09:18 17.8 °F 13.1 °F 1019.9 in SW 7.4 mph 7.4 mph 74 % 0.0 in 109.0 W/m2 CLR
09:23 18.3 °F 13.6 °F 1019.9 in Calm     74 % 0.0 in 113.0 W/m2 CLR
09:28 18.3 °F 13.4 °F 1019.9 in South 3.7 mph 3.7 mph 73 % 0.0 in 225.0 W/m2 CLR
09:33 18.3 °F 13.4 °F 1020.2 in Calm     73 % 0.0 in 114.0 W/m2 CLR
09:38 18.3 °F 13.4 °F 1020.2 in Calm     73 % 0.0 in 301.0 W/m2 CLR
09:43 18.9 °F 13.7 °F 1020.2 in Calm     72 % 0.0 in 100.0 W/m2 CLR
09:48 18.9 °F 13.7 °F 1020.2 in SSW 14.5 mph 14.5 mph 72 % 0.0 in 352.0 W/m2 CLR
09:53 18.9 °F 13.3 °F 1020.2 in South 6.4 mph 6.4 mph 70 % 0.0 in 399.0 W/m2 CLR
09:58 19.4 °F 13.4 °F 1020.2 in South 13.0 mph 13.0 mph 68 % 0.0 in 410.0 W/m2 CLR
10:03 20.0 °F 13.7 °F 1020.2 in WSW 16.1 mph 16.1 mph 67 % 0.0 in 149.0 W/m2 CLR
10:08 20.0 °F 13.4 °F 1020.2 in SW 11.3 mph 11.3 mph 66 % 0.0 in 186.0 W/m2 CLR
10:13 20.6 °F 14.0 °F 1020.5 in SW 16.1 mph 16.1 mph 66 % 0.0 in 457.0 W/m2 CLR
10:18 20.6 °F 14.0 °F 1020.5 in SSW 14.8 mph 14.8 mph 66 % 0.0 in 322.0 W/m2 CLR
10:23 20.6 °F 14.0 °F 1020.5 in SSW 20.4 mph 20.4 mph 66 % 0.0 in 531.0 W/m2 CLR
10:28 21.1 °F 14.5 °F 1020.5 in SW 20.4 mph 20.4 mph 66 % 0.0 in 230.0 W/m2 CLR
10:33 21.1 °F 14.5 °F 1020.5 in West 18.5 mph 18.5 mph 66 % 0.0 in 538.0 W/m2 CLR
10:38 21.1 °F 14.5 °F 1020.5 in SW 14.8 mph 14.8 mph 66 % 0.0 in 332.0 W/m2 CLR
10:43 21.1 °F 14.3 °F 1020.5 in SSW 13.0 mph 13.0 mph 65 % 0.0 in 348.0 W/m2 CLR
10:48 21.1 °F 14.1 °F 1020.5 in SW 8.0 mph 8.0 mph 64 % 0.0 in 264.0 W/m2 CLR
10:53 21.7 °F 14.3 °F 1020.5 in WSW 13.0 mph 13.0 mph 63 % 0.0 in 220.0 W/m2 CLR
10:58 21.7 °F 14.1 °F 1020.5 in SW 9.7 mph 9.7 mph 62 % 0.0 in 186.0 W/m2 CLR
11:03 21.7 °F 14.1 °F 1020.5 in SSW 11.1 mph 11.1 mph 62 % 0.0 in 132.0 W/m2 CLR
11:09 21.1 °F 13.8 °F 1020.5 in SSW 13.0 mph 13.0 mph 63 % 0.0 in 591.0 W/m2 CLR
11:14 21.1 °F 14.1 °F 1020.2 in South 9.7 mph 9.7 mph 64 % 0.0 in 589.0 W/m2 CLR
11:19 21.1 °F 14.1 °F 1020.5 in South 16.7 mph 16.7 mph 64 % 0.0 in 171.0 W/m2 CLR
11:24 21.7 °F 14.6 °F 1020.5 in SSW 17.7 mph 17.7 mph 64 % 0.0 in 207.0 W/m2 CLR
11:29 21.7 °F 14.3 °F 1020.2 in SSW 22.2 mph 22.2 mph 63 % 0.0 in 598.0 W/m2 CLR
11:34 22.2 °F 14.8 °F 1020.2 in SSW 14.8 mph 14.8 mph 63 % 0.0 in 638.0 W/m2 CLR
11:39 22.8 °F 15.4 °F 1020.2 in SW 14.8 mph 14.8 mph 63 % 0.0 in 628.0 W/m2 CLR
11:44 22.8 °F 15.1 °F 1020.2 in SW 13.0 mph 13.0 mph 62 % 0.0 in 603.0 W/m2 CLR
11:49 23.3 °F 15.1 °F 1020.2 in SW 16.7 mph 16.7 mph 60 % 0.0 in 596.0 W/m2 CLR
11:54 23.3 °F 14.6 °F 1020.2 in SW 24.1 mph 24.1 mph 58 % 0.0 in 601.0 W/m2 CLR
12:04 23.9 °F 14.8 °F 1020.2 in SW 14.8 mph 14.8 mph 57 % 0.0 in 626.0 W/m2 CLR
12:09 23.9 °F 14.6 °F 1020.2 in SW 24.1 mph 24.1 mph 56 % 0.0 in 635.0 W/m2 CLR
12:14 24.4 °F 14.6 °F 1020.2 in WSW 25.9 mph 25.9 mph 54 % 0.0 in 647.0 W/m2 CLR
12:19 24.4 °F 14.6 °F 1020.2 in SW 19.3 mph 19.3 mph 54 % 0.0 in 657.0 W/m2 CLR
12:24 24.4 °F 13.9 °F 1020.2 in West 24.1 mph 24.1 mph 52 % 0.0 in 638.0 W/m2 CLR
12:29 24.4 °F 13.3 °F 1020.2 in SW 27.8 mph 27.8 mph 50 % 0.0 in 679.0 W/m2 CLR
12:39 24.4 °F 13.1 °F 1020.2 in West 31.5 mph 31.5 mph 49 % 0.0 in 475.0 W/m2 CLR
12:44 24.4 °F 12.7 °F 1020.2 in WSW 33.3 mph 33.3 mph 48 % 0.0 in 705.0 W/m2 CLR
12:49 24.4 °F 12.7 °F 1020.2 in WSW 33.3 mph 33.3 mph 48 % 0.0 in 701.0 W/m2 CLR
12:54 25.0 °F 12.9 °F 1019.9 in SW 22.2 mph 22.2 mph 47 % 0.0 in 461.0 W/m2 CLR
12:59 25.6 °F 13.4 °F 1019.9 in SSW 18.5 mph 18.5 mph 47 % 0.0 in 788.0 W/m2 CLR
13:04 24.4 °F 12.1 °F 1019.9 in West 25.9 mph 25.9 mph 46 % 0.0 in 752.0 W/m2 CLR
13:09 24.4 °F 12.1 °F 1019.9 in WSW 22.2 mph 22.2 mph 46 % 0.0 in 775.0 W/m2 CLR
13:14 25.0 °F 12.2 °F 1019.9 in WSW 25.9 mph 25.9 mph 45 % 0.0 in 735.0 W/m2 CLR
13:19 25.0 °F 12.2 °F 1019.9 in SW 20.4 mph 20.4 mph 45 % 0.0 in 738.0 W/m2 CLR
13:24 25.6 °F 12.4 °F 1019.9 in SSW 18.5 mph 18.5 mph 44 % 0.0 in 747.0 W/m2 CLR
13:29 25.6 °F 12.1 °F 1019.9 in SW 31.5 mph 31.5 mph 43 % 0.0 in 686.0 W/m2 CLR
13:34 25.6 °F 12.4 °F 1019.9 in SW 22.2 mph 22.2 mph 44 % 0.0 in 754.0 W/m2 CLR
13:39 25.6 °F 11.7 °F 1019.5 in WSW 25.7 mph 25.7 mph 42 % 0.0 in 731.0 W/m2 CLR
13:44 25.6 °F 11.7 °F 1019.9 in West 24.1 mph 24.1 mph 42 % 0.0 in 728.0 W/m2 CLR
13:49 26.1 °F 12.2 °F 1019.5 in West 25.7 mph 25.7 mph 42 % 0.0 in 731.0 W/m2 CLR
13:54 25.6 °F 10.9 °F 1019.5 in WNW 25.7 mph 25.7 mph 40 % 0.0 in 737.0 W/m2 CLR
13:59 25.6 °F 11.3 °F 1019.5 in WSW 25.9 mph 25.9 mph 41 % 0.0 in 729.0 W/m2 CLR
14:04 26.1 °F 11.4 °F 1019.5 in WSW 25.9 mph 25.9 mph 40 % 0.0 in 731.0 W/m2 CLR
14:09 26.1 °F 11.1 °F 1019.5 in West 25.9 mph 25.9 mph 39 % 0.0 in 735.0 W/m2 CLR
14:14 26.7 °F 11.6 °F 1019.2 in West 14.8 mph 16.1 mph 39 % 0.0 in 751.0 W/m2 CLR
14:19 26.7 °F 11.6 °F 1019.2 in WSW 25.9 mph 25.9 mph 39 % 0.0 in 628.0 W/m2 CLR
14:24 26.7 °F 11.9 °F 1019.2 in SW 18.5 mph 18.5 mph 40 % 0.0 in 726.0 W/m2 CLR
14:29 26.7 °F 11.6 °F 1019.2 in West 29.6 mph 29.6 mph 39 % 0.0 in 722.0 W/m2 CLR
14:34 26.7 °F 11.9 °F 1019.2 in West 24.1 mph 24.1 mph 40 % 0.0 in 735.0 W/m2 CLR
14:39 26.7 °F 11.6 °F 1019.2 in WSW 9.3 mph 9.3 mph 39 % 0.0 in 714.0 W/m2 CLR
14:44 26.7 °F 12.3 °F 1019.2 in West 20.4 mph 20.4 mph 41 % 0.0 in 705.0 W/m2 CLR
14:49 26.7 °F 11.6 °F 1018.8 in West 22.2 mph 22.2 mph 39 % 0.0 in 700.0 W/m2 CLR
14:54 26.7 °F 11.9 °F 1018.8 in WSW 22.2 mph 22.2 mph 40 % 0.0 in 696.0 W/m2 CLR
14:59 26.1 °F 11.1 °F 1018.8 in WSW 29.6 mph 29.6 mph 39 % 0.0 in 700.0 W/m2 CLR
15:04 26.1 °F 11.1 °F 1018.8 in West 22.2 mph 22.2 mph 39 % 0.0 in 666.0 W/m2 CLR
15:10 26.7 °F 11.2 °F 1018.8 in WSW 20.9 mph 20.9 mph 38 % 0.0 in 726.0 W/m2 CLR
15:15 26.1 °F 10.7 °F 1018.8 in SW 24.1 mph 24.1 mph 38 % 0.0 in 619.0 W/m2 CLR
15:19 26.1 °F 10.7 °F 1018.8 in SW 25.9 mph 25.9 mph 38 % 0.0 in 726.0 W/m2 CLR
15:25 26.7 °F 11.2 °F 1018.5 in SW 22.2 mph 22.2 mph 38 % 0.0 in 640.0 W/m2 CLR
15:30 26.7 °F 11.6 °F 1018.5 in WSW 31.5 mph 31.5 mph 39 % 0.0 in 554.0 W/m2 CLR
15:35 26.7 °F 11.2 °F 1018.5 in SW 31.5 mph 31.5 mph 38 % 0.0 in 631.0 W/m2 CLR
15:40 26.7 °F 11.2 °F 1018.5 in West 20.4 mph 20.4 mph 38 % 0.0 in 598.0 W/m2 CLR
15:45 26.7 °F 10.8 °F 1018.5 in West 24.1 mph 24.1 mph 37 % 0.0 in 642.0 W/m2 CLR
15:50 26.1 °F 10.3 °F 1018.5 in WSW 22.2 mph 22.2 mph 37 % 0.0 in 383.0 W/m2 CLR
15:55 25.6 °F 10.2 °F 1018.5 in WSW 18.5 mph 18.5 mph 38 % 0.0 in 267.0 W/m2 CLR
16:00 25.6 °F 10.2 °F 1018.5 in West 24.1 mph 24.1 mph 38 % 0.0 in 401.0 W/m2 CLR
16:05 25.6 °F 10.9 °F 1018.5 in West 24.1 mph 24.1 mph 40 % 0.0 in 295.0 W/m2 CLR
16:10 25.0 °F 10.4 °F 1018.5 in West 29.6 mph 29.6 mph 40 % 0.0 in 501.0 W/m2 CLR
16:15 26.1 °F 11.1 °F 1018.5 in SW 16.1 mph 16.1 mph 39 % 0.0 in 664.0 W/m2 CLR
16:20 26.1 °F 11.1 °F 1018.5 in WSW 27.8 mph 27.8 mph 39 % 0.0 in 301.0 W/m2 CLR
16:25 26.1 °F 11.4 °F 1018.5 in WSW 22.2 mph 22.2 mph 40 % 0.0 in 496.0 W/m2 CLR
16:30 26.1 °F 11.4 °F 1018.5 in West 25.9 mph 25.9 mph 40 % 0.0 in 315.0 W/m2 CLR
16:35 26.1 °F 11.4 °F 1018.5 in West 20.9 mph 20.9 mph 40 % 0.0 in 589.0 W/m2 CLR
16:40 26.1 °F 10.7 °F 1018.5 in WNW 29.6 mph 29.6 mph 38 % 0.0 in 504.0 W/m2 CLR
16:45 26.1 °F 10.3 °F 1018.5 in WNW 29.6 mph 29.6 mph 37 % 0.0 in 459.0 W/m2 CLR
16:50 26.1 °F 11.1 °F 1018.5 in WSW 27.8 mph 27.8 mph 39 % 0.0 in 469.0 W/m2 CLR
16:55 26.1 °F 10.7 °F 1018.5 in West 25.9 mph 25.9 mph 38 % 0.0 in 339.0 W/m2 CLR
17:00 26.1 °F 11.1 °F 1018.2 in West 22.2 mph 22.2 mph 39 % 0.0 in 255.0 W/m2 CLR
17:05 25.6 °F 10.9 °F 1018.2 in West 25.9 mph 25.9 mph 40 % 0.0 in 193.0 W/m2 CLR
17:10 25.0 °F 10.4 °F 1018.2 in SW 29.6 mph 29.6 mph 40 % 0.0 in 287.0 W/m2 CLR
17:15 25.6 °F 10.2 °F 1018.2 in WSW 25.9 mph 25.9 mph 38 % 0.0 in 206.0 W/m2 CLR
17:20 25.6 °F 10.9 °F 1018.2 in West 24.1 mph 24.1 mph 40 % 0.0 in 424.0 W/m2 CLR
17:25 26.1 °F 11.8 °F 1018.5 in SW 20.9 mph 20.9 mph 41 % 0.0 in 475.0 W/m2 CLR
17:30 26.7 °F 12.3 °F 1018.5 in WSW 24.1 mph 24.1 mph 41 % 0.0 in 452.0 W/m2 CLR
17:35 26.1 °F 12.2 °F 1018.2 in WSW 25.9 mph 25.9 mph 42 % 0.0 in 193.0 W/m2 CLR
17:40 25.6 °F 12.1 °F 1018.5 in SW 22.2 mph 22.2 mph 43 % 0.0 in 262.0 W/m2 CLR
17:45 25.6 °F 12.1 °F 1018.5 in WSW 22.2 mph 22.2 mph 43 % 0.0 in 176.0 W/m2 CLR
17:50 25.6 °F 12.1 °F 1018.5 in West 20.4 mph 20.4 mph 43 % 0.0 in 118.0 W/m2 CLR
17:55 25.0 °F 12.2 °F 1018.5 in SW 17.7 mph 17.7 mph 45 % 0.0 in 151.0 W/m2 CLR
18:05 24.4 °F 12.1 °F 1018.8 in WSW 24.1 mph 24.1 mph 46 % 0.0 in 190.0 W/m2 CLR
18:10 24.4 °F 12.1 °F 1018.8 in WSW 31.5 mph 31.5 mph 46 % 0.0 in 148.0 W/m2 CLR
18:15 24.4 °F 12.1 °F 1018.8 in WSW 31.5 mph 31.5 mph 46 % 0.0 in 139.0 W/m2 CLR
18:20 24.4 °F 12.4 °F 1019.2 in WSW 31.5 mph 31.5 mph 47 % 0.0 in 158.0 W/m2 CLR
18:25 24.4 °F 12.4 °F 1019.2 in WSW 31.5 mph 31.5 mph 47 % 0.0 in 113.0 W/m2 CLR
18:30 24.4 °F 12.4 °F 1019.2 in SW 25.9 mph 25.9 mph 47 % 0.0 in 107.0 W/m2 CLR
18:35 23.9 °F 11.6 °F 1019.5 in SW 29.0 mph 29.0 mph 46 % 0.0 in 163.0 W/m2 CLR
18:40 23.9 °F 11.6 °F 1019.5 in SW 24.1 mph 24.1 mph 46 % 0.0 in 91.0 W/m2 CLR
18:45 23.9 °F 11.9 °F 1019.5 in WSW 27.8 mph 27.8 mph 47 % 0.0 in 114.0 W/m2 CLR
18:50 23.9 °F 11.9 °F 1019.5 in SW 31.5 mph 31.5 mph 47 % 0.0 in 84.0 W/m2 CLR
18:55 23.3 °F 11.7 °F 1019.5 in SW 35.4 mph 35.4 mph 48 % 0.0 in 46.0 W/m2 SCT
19:00 23.3 °F 11.7 °F 1019.5 in SW 33.3 mph 33.3 mph 48 % 0.0 in 26.0 W/m2 BKN
19:05 23.3 °F 12.0 °F 1019.5 in SW 31.5 mph 31.5 mph 49 % 0.0 in 21.0 W/m2 BKN
19:10 23.3 °F 12.0 °F 1019.5 in WSW 31.5 mph 31.5 mph 49 % 0.0 in 19.0 W/m2 BKN
19:15 23.3 °F 12.0 °F 1019.9 in WSW 29.6 mph 29.6 mph 49 % 0.0 in 18.0 W/m2 BKN
19:20 22.8 °F 11.8 °F 1019.9 in WSW 35.4 mph 35.4 mph 50 % 0.0 in 16.0 W/m2 BKN
19:25 22.8 °F 11.5 °F 1020.2 in SW 27.8 mph 27.8 mph 49 % 0.0 in 12.0 W/m2 BKN
19:30 22.8 °F 11.8 °F 1020.2 in WSW 27.8 mph 27.8 mph 50 % 0.0 in 11.0 W/m2 BKN
19:35 22.2 °F 11.3 °F 1020.2 in WSW 31.5 mph 31.5 mph 50 % 0.0 in 7.0 W/m2 BKN
19:40 22.2 °F 11.6 °F 1020.2 in WSW 22.2 mph 22.2 mph 51 % 0.0 in 5.0 W/m2 OVC
19:45 22.2 °F 11.6 °F 1020.2 in SW 18.5 mph 18.5 mph 51 % 0.0 in 0.0 W/m2 OVC
19:50 22.2 °F 11.6 °F 1020.5 in SSW 18.5 mph 18.5 mph 51 % 0.0 in 0.0 W/m2 OVC
19:55 22.2 °F 11.6 °F 1020.5 in SSW 20.9 mph 20.9 mph 51 % 0.0 in 0.0 W/m2 OVC
20:00 22.2 °F 11.6 °F 1020.5 in SW 27.8 mph 27.8 mph 51 % 0.0 in 0.0 W/m2 CLR
20:05 22.2 °F 11.9 °F 1020.5 in SSW 18.5 mph 18.5 mph 52 % 0.0 in 0.0 W/m2 CLR
20:10 21.7 °F 11.4 °F 1020.5 in SW 31.5 mph 31.5 mph 52 % 0.0 in 0.0 W/m2 CLR
20:15 21.7 °F 11.4 °F 1020.9 in SSW 18.5 mph 18.5 mph 52 % 0.0 in 0.0 W/m2 CLR
20:20 21.7 °F 11.1 °F 1020.9 in SW 25.9 mph 25.9 mph 51 % 0.0 in 0.0 W/m2 CLR
20:25 21.7 °F 11.1 °F 1020.9 in SW 24.1 mph 24.1 mph 51 % 0.0 in 0.0 W/m2 CLR
20:30 21.7 °F 10.8 °F 1020.9 in WSW 27.8 mph 27.8 mph 50 % 0.0 in 0.0 W/m2 CLR
20:35 21.7 °F 10.8 °F 1020.9 in SSW 29.0 mph 29.0 mph 50 % 0.0 in 0.0 W/m2 CLR
20:40 21.7 °F 10.8 °F 1021.2 in SW 24.1 mph 24.1 mph 50 % 0.0 in 0.0 W/m2 CLR
20:45 21.7 °F 10.8 °F 1021.2 in WSW 24.1 mph 24.1 mph 50 % 0.0 in 0.0 W/m2 CLR
20:50 21.1 °F 10.3 °F 1021.2 in SW 24.1 mph 24.1 mph 50 % 0.0 in 0.0 W/m2 CLR
20:55 21.1 °F 10.6 °F 1021.2 in WSW 31.5 mph 31.5 mph 51 % 0.0 in 0.0 W/m2 CLR
21:00 21.1 °F 10.6 °F 1021.2 in SW 25.9 mph 25.9 mph 51 % 0.0 in 0.0 W/m2 CLR
21:05 21.1 °F 10.9 °F 1021.2 in SW 25.9 mph 25.9 mph 52 % 0.0 in 0.0 W/m2 CLR
21:10 21.1 °F 10.9 °F 1021.2 in SSW 31.5 mph 31.5 mph 52 % 0.0 in 0.0 W/m2 CLR
21:15 21.1 °F 10.9 °F 1021.6 in SW 31.5 mph 31.5 mph 52 % 0.0 in 0.0 W/m2 CLR
21:16 21.1 °F 10.9 °F 1021.6 in SW 27.8 mph 27.8 mph 52 % 0.0 in 0.0 W/m2 CLR
21:21 21.1 °F 10.9 °F 1021.6 in SW 22.2 mph 22.2 mph 52 % 0.0 in 0.0 W/m2 CLR
21:26 21.1 °F 10.9 °F 1021.6 in SW 20.4 mph 20.4 mph 52 % 0.0 in 0.0 W/m2 CLR
21:31 21.1 °F 11.2 °F 1021.6 in SW 24.1 mph 24.1 mph 53 % 0.0 in 0.0 W/m2 CLR
21:37 20.6 °F 10.9 °F 1021.6 in SW 25.9 mph 25.9 mph 54 % 0.0 in 0.0 W/m2 CLR
21:42 20.6 °F 10.9 °F 1021.9 in SW 24.1 mph 24.1 mph 54 % 0.0 in 0.0 W/m2 CLR
21:47 20.6 °F 10.9 °F 1021.9 in SSW 20.4 mph 20.4 mph 54 % 0.0 in 0.0 W/m2 CLR
21:52 20.6 °F 11.2 °F 1021.9 in SSW 22.5 mph 22.5 mph 55 % 0.0 in 0.0 W/m2 CLR
21:57 20.6 °F 11.2 °F 1021.6 in SSW 22.5 mph 22.5 mph 55 % 0.0 in 0.0 W/m2 CLR
22:02 20.6 °F 11.2 °F 1021.6 in SSW 29.6 mph 29.6 mph 55 % 0.0 in 0.0 W/m2 CLR
22:07 20.6 °F 11.2 °F 1021.6 in SSW 24.1 mph 24.1 mph 55 % 0.0 in 0.0 W/m2 CLR
22:12 20.6 °F 11.4 °F 1021.6 in SSW 25.9 mph 25.9 mph 56 % 0.0 in 0.0 W/m2 CLR
22:17 20.0 °F 10.9 °F 1021.9 in SW 27.8 mph 27.8 mph 56 % 0.0 in 0.0 W/m2 CLR
22:22 20.0 °F 10.7 °F 1021.9 in SW 29.6 mph 29.6 mph 55 % 0.0 in 0.0 W/m2 CLR
22:27 20.0 °F 10.7 °F 1021.9 in SSW 29.6 mph 29.6 mph 55 % 0.0 in 0.0 W/m2 CLR
22:32 20.0 °F 10.7 °F 1021.9 in SW 32.2 mph 32.2 mph 55 % 0.0 in 0.0 W/m2 CLR
22:37 20.0 °F 10.7 °F 1021.9 in SSW 29.6 mph 29.6 mph 55 % 0.0 in 0.0 W/m2 CLR
22:42 20.0 °F 10.9 °F 1021.9 in SW 37.0 mph 37.0 mph 56 % 0.0 in 0.0 W/m2 CLR
22:47 20.0 °F 11.2 °F 1021.9 in SW 31.5 mph 31.5 mph 57 % 0.0 in 0.0 W/m2 CLR
22:52 19.4 °F 10.7 °F 1021.9 in SSW 42.6 mph 42.6 mph 57 % 0.0 in 0.0 W/m2 CLR
22:57 19.4 °F 10.7 °F 1021.9 in SW 31.5 mph 31.5 mph 57 % 0.0 in 0.0 W/m2 CLR
23:02 19.4 °F 10.9 °F 1021.9 in WSW 24.1 mph 24.1 mph 58 % 0.0 in 0.0 W/m2 CLR
23:07 19.4 °F 10.7 °F 1021.9 in SSW 31.5 mph 31.5 mph 57 % 0.0 in 0.0 W/m2 CLR
23:12 19.4 °F 10.7 °F 1022.2 in SW 22.2 mph 22.2 mph 57 % 0.0 in 0.0 W/m2 CLR
23:17 19.4 °F 10.7 °F 1022.2 in SW 31.5 mph 31.5 mph 57 % 0.0 in 0.0 W/m2 CLR
23:22 19.4 °F 10.7 °F 1022.2 in SW 27.4 mph 27.4 mph 57 % 0.0 in 0.0 W/m2 CLR
23:27 19.4 °F 10.9 °F 1021.9 in SW 31.5 mph 31.5 mph 58 % 0.0 in 0.0 W/m2 CLR
23:32 18.9 °F 10.4 °F 1022.2 in SW 32.2 mph 32.2 mph 58 % 0.0 in 0.0 W/m2 CLR
23:37 18.9 °F 10.4 °F 1021.9 in SSW 22.5 mph 22.5 mph 58 % 0.0 in 0.0 W/m2 CLR
23:39 18.9 °F 10.4 °F 1021.9 in SSW 29.6 mph 29.6 mph 58 % 0.0 in 0.0 W/m2 CLR
23:44 18.9 °F 10.4 °F 1021.9 in SW 24.1 mph 24.1 mph 58 % 0.0 in 0.0 W/m2 CLR
23:49 18.9 °F 10.4 °F 1022.2 in SSW 25.9 mph 25.9 mph 58 % 0.0 in 0.0 W/m2 CLR
23:54 18.9 °F 10.4 °F 1021.9 in SSW 20.4 mph 20.4 mph 58 % 0.0 in 0.0 W/m2 CLR
23:59 18.9 °F 10.7 °F 1021.9 in SW 25.9 mph 25.9 mph 59 % 0.0 in 0.0 W/m2 CLR
Lo Temps de Massalio
Compliments of Weather Underground - 1.25 mb